START_TIME,STEP,MOV.,M35,t_acc.,PL05,t_acc.,PL06,t_acc.,PL07,t_acc.
1979-03-01 06:00:13.350 ,7,0,0.,4.8,8.,4.8,2.,4.8,1.,4.8
1979-03-01 06:00:18.150 ,7,0,0.,4.8,15.,4.8,3.,4.8,0.,4.8
1979-03-01 06:00:22.950 ,7,0,0.,4.8,1.,4.8,1.,4.8,0.,4.8
1979-03-01 06:00:27.750 ,7,0,0.,4.8,0.,4.8,0.,4.8,0.,4.8
1979-03-01 06:00:32.550 ,7,0,0.,4.8,0.,4.8,0.,4.8,0.,4.8
1979-03-01 06:00:37.350 ,7,0,0.,4.8,1.,4.8,1.,4.8,1.,4.8
1979-03-01 06:00:42.150 ,7,0,0.,4.8,0.,4.8,0.,4.8,0.,4.8
1979-03-01 06:00:46.950 ,7,0,0.,4.8,0.,4.8,0.,4.8,0.,4.8
1979-03-01 06:00:51.750 ,7,0,0.,4.8,1.,4.8,1.,4.8,0.,4.8
1979-03-01 06:00:56.550 ,7,0,0.,4.8,0.,4.8,1.,4.8,0.,4.8
1979-03-01 06:01:01.350 ,6,0,0.,4.8,0.,4.8,3.,4.8,0.,4.8
1979-03-01 06:01:06.150 ,6,0,0.,4.8,1.,4.8,2.,4.8,1.,4.8
1979-03-01 06:01:10.950 ,6,0,0.,4.8,19.,4.8,1.,4.8,1.,4.8
1979-03-01 06:01:15.750 ,6,0,0.,4.8,9.,4.8,3.,4.8,0.,4.8
1979-03-01 06:01:20.550 ,6,0,0.,4.8,16.,4.8,2.,4.8,1.,4.8
1979-03-01 06:01:25.350 ,5,0,0.,4.8,8.,4.8,4.,4.8,4.,4.8
1979-03-01 06:01:30.150 ,5,0,0.,4.8,11.,4.8,1.,4.8,2.,4.8
1979-03-01 06:01:34.950 ,5,0,0.,4.8,11.,4.8,2.,4.8,2.,4.8
1979-03-01 06:01:39.750 ,5,0,0.,4.8,11.,4.8,3.,4.8,0.,4.8
1979-03-01 06:01:44.550 ,5,0,0.,4.8,7.,4.8,3.,4.8,0.,4.8
1979-03-01 06:01:49.350 ,4,0,0.,4.8,8.,4.8,3.,4.8,1.,4.8
1979-03-01 06:01:54.150 ,4,0,0.,4.8,7.,4.8,1.,4.8,0.,4.8
1979-03-01 06:01:58.950 ,4,0,0.,4.8,6.,4.8,2.,4.8,0.,4.8
1979-03-01 06:02:03.750 ,4,0,0.,4.8,9.,4.8,2.,4.8,0.,4.8
1979-03-01 06:02:08.550 ,4,0,0.,4.8,10.,4.8,0.,4.8,0.,4.8
1979-03-01 06:02:13.350 ,3,0,0.,4.8,5.,4.8,2.,4.8,2.,4.8
1979-03-01 06:02:18.150 ,3,0,0.,4.8,4.,4.8,1.,4.8,0.,4.8
1979-03-01 06:02:22.950 ,3,0,0.,4.8,5.,4.8,1.,4.8,2.,4.8
1979-03-01 06:02:27.750 ,3,0,0.,4.8,6.,4.8,1.,4.8,0.,4.8
1979-03-01 06:02:32.550 ,3,0,0.,4.8,4.,4.8,2.,4.8,0.,4.8
1979-03-01 06:02:37.350 ,2,0,0.,4.8,8.,4.8,2.,4.8,0.,4.8
1979-03-01 06:02:42.150 ,2,0,0.,4.8,7.,4.8,1.,4.8,3.,4.8
1979-03-01 06:02:46.950 ,2,0,0.,4.8,19.,4.8,4.,4.8,1.,4.8
1979-03-01 06:02:51.750 ,2,0,0.,4.8,14.,4.8,6.,4.8,1.,4.8
1979-03-01 06:02:56.550 ,2,0,0.,4.8,8.,4.8,7.,4.8,3.,4.8
1979-03-01 06:03:01.350 ,1,0,0.,4.8,12.,4.8,7.,4.8,2.,4.8
1979-03-01 06:03:06.150 ,1,0,0.,4.8,8.,4.8,2.,4.8,3.,4.8
1979-03-01 06:03:10.950 ,1,0,0.,4.8,10.,4.8,10.,4.8,2.,4.8
1979-03-01 06:03:15.750 ,1,0,0.,4.8,12.,4.8,5.,4.8,5.,4.8
1979-03-01 06:03:20.550 ,1,0,0.,4.8,15.,4.8,2.,4.8,5.,4.8
1979-03-01 06:03:25.350 ,0,0,0.,4.8,11.,4.8,3.,4.8,6.,4.8
1979-03-01 06:03:30.150 ,0,0,0.,4.8,17.,4.8,1.,4.8,4.,4.8
1979-03-01 06:03:34.950 ,0,0,0.,4.8,12.,4.8,2.,4.8,1.,4.8
1979-03-01 06:03:39.750 ,0,0,0.,4.8,17.,4.8,2.,4.8,2.,4.8
1979-03-01 06:03:44.550 ,0,0,0.,4.8,7.,4.8,6.,4.8,1.,4.8
1979-03-01 06:13:25.350 ,0,0,0.,4.8,0.,4.8,2.,4.8,1.,4.8
1979-03-01 06:13:30.150 ,0,0,0.,4.8,2.,4.8,1.,4.8,1.,4.8
1979-03-01 06:13:34.950 ,0,0,0.,4.8,0.,4.8,0.,4.8,0.,4.8
1979-03-01 06:13:39.750 ,0,0,0.,4.8,2.,4.8,1.,4.8,0.,4.8
1979-03-01 06:13:44.550 ,0,0,0.,4.8,0.,4.8,0.,4.8,0.,4.8
1979-03-01 06:13:49.350 ,6,0,0.,4.8,0.,4.8,1.,4.8,0.,4.8
1979-03-01 06:13:54.150 ,6,0,0.,4.8,0.,4.8,0.,4.8,0.,4.8
1979-03-01 06:13:58.950 ,6,0,0.,4.8,12.,4.8,1.,4.8,0.,4.8
1979-03-01 06:14:03.750 ,6,0,0.,4.8,8.,4.8,0.,4.8,0.,4.8
1979-03-01 06:14:08.550 ,6,0,0.,4.8,8.,4.8,4.,4.8,0.,4.8
1979-03-01 06:14:13.350 ,5,0,0.,4.8,8.,4.8,3.,4.8,2.,4.8
1979-03-01 06:14:18.150 ,5,0,0.,4.8,7.,4.8,1.,4.8,1.,4.8
1979-03-01 06:14:22.950 ,5,0,0.,4.8,7.,4.8,3.,4.8,0.,4.8
1979-03-01 06:14:27.750 ,5,0,0.,4.8,5.,4.8,2.,4.8,0.,4.8
1979-03-01 06:14:32.550 ,5,0,0.,4.8,5.,4.8,0.,4.8,1.,4.8
1979-03-01 06:14:37.350 ,4,0,0.,4.8,6.,4.8,1.,4.8,1.,4.8
1979-03-01 06:14:42.150 ,4,0,0.,4.8,12.,4.8,0.,4.8,0.,4.8
1979-03-01 06:14:46.950 ,4,0,0.,4.8,6.,4.8,2.,4.8,1.,4.8
1979-03-01 06:14:51.750 ,4,0,0.,4.8,4.,4.8,1.,4.8,0.,4.8
1979-03-01 06:14:56.550 ,4,0,0.,4.8,4.,4.8,3.,4.8,1.,4.8
1979-03-01 06:15:01.350 ,3,0,0.,4.8,8.,4.8,0.,4.8,1.,4.8
1979-03-01 06:15:06.150 ,3,0,0.,4.8,1.,4.8,2.,4.8,0.,4.8
1979-03-01 06:15:10.950 ,3,0,0.,4.8,8.,4.8,3.,4.8,0.,4.8
1979-03-01 06:15:15.750 ,3,0,0.,4.8,6.,4.8,8.,4.8,3.,4.8
1979-03-01 06:15:20.550 ,3,0,0.,4.8,9.,4.8,1.,4.8,2.,4.8
1979-03-01 06:15:25.350 ,2,0,0.,4.8,4.,4.8,3.,4.8,0.,4.8
1979-03-01 06:15:30.150 ,2,0,0.,4.8,11.,4.8,5.,4.8,2.,4.8
1979-03-01 06:15:34.950 ,2,0,0.,4.8,18.,4.8,6.,4.8,5.,4.8
1979-03-01 06:15:39.750 ,2,0,0.,4.8,17.,4.8,10.,4.8,7.,4.8
1979-03-01 06:15:44.550 ,2,0,0.,4.8,13.,4.8,9.,4.8,6.,4.8
1979-03-01 06:15:49.350 ,1,0,0.,4.8,8.,4.8,11.,4.8,0.,4.8
1979-03-01 06:15:54.150 ,1,0,0.,4.8,20.,4.8,12.,4.8,7.,4.8
1979-03-01 06:15:58.950 ,1,0,0.,4.8,16.,4.8,5.,4.8,4.,4.8
1979-03-01 06:16:03.750 ,1,0,0.,4.8,23.,4.8,7.,4.8,1.,4.8
1979-03-01 06:16:08.550 ,1,0,0.,4.8,16.,4.8,7.,4.8,2.,4.8
1979-03-01 06:16:13.350 ,0,0,0.,4.8,16.,4.8,9.,4.8,1.,4.8
1979-03-01 06:16:18.150 ,0,0,0.,4.8,20.,4.8,4.,4.8,3.,4.8
1979-03-01 06:16:22.950 ,0,0,0.,4.8,13.,4.8,3.,4.8,0.,4.8
1979-03-01 06:16:27.750 ,0,0,0.,4.8,5.,4.8,2.,4.8,0.,4.8
1979-03-01 06:16:32.550 ,0,0,0.,4.8,9.,4.8,2.,4.8,2.,4.8
1979-03-01 06:16:37.350 ,0,0,0.,4.8,8.,4.8,1.,4.8,0.,4.8
1979-03-01 06:16:42.150 ,0,0,0.,4.8,6.,4.8,2.,4.8,1.,4.8
1979-03-01 06:16:46.950 ,0,0,0.,4.8,8.,4.8,1.,4.8,1.,4.8
1979-03-01 06:16:51.750 ,0,0,0.,4.8,11.,4.8,1.,4.8,0.,4.8
1979-03-01 06:16:56.550 ,0,0,0.,4.8,7.,4.8,3.,4.8,3.,4.8
1979-03-01 06:17:01.350 ,1,0,0.,4.8,16.,4.8,3.,4.8,2.,4.8
1979-03-01 06:17:06.150 ,1,0,0.,4.8,8.,4.8,2.,4.8,0.,4.8
1979-03-01 06:17:10.950 ,1,0,0.,4.8,16.,4.8,3.,4.8,4.,4.8
1979-03-01 06:17:15.750 ,1,0,0.,4.8,15.,4.8,6.,4.8,2.,4.8
1979-03-01 06:17:20.550 ,1,0,0.,4.8,24.,4.8,4.,4.8,3.,4.8
1979-03-01 06:17:25.350 ,2,0,0.,4.8,24.,4.8,7.,4.8,6.,4.8
1979-03-01 06:17:30.150 ,2,0,0.,4.8,12.,4.8,3.,4.8,6.,4.8
1979-03-01 06:17:34.950 ,2,0,0.,4.8,17.,4.8,6.,4.8,3.,4.8
1979-03-01 06:17:39.750 ,2,0,0.,4.8,15.,4.8,4.,4.8,3.,4.8
1979-03-01 06:17:44.550 ,2,0,0.,4.8,20.,4.8,8.,4.8,7.,4.8
1979-03-01 06:17:49.350 ,3,0,0.,4.8,13.,4.8,12.,4.8,3.,4.8
1979-03-01 06:17:54.150 ,3,0,0.,4.8,15.,4.8,6.,4.8,8.,4.8
1979-03-01 06:17:58.950 ,3,0,0.,4.8,3.,4.8,3.,4.8,2.,4.8
1979-03-01 06:18:03.750 ,3,0,0.,4.8,7.,4.8,4.,4.8,1.,4.8
1979-03-01 06:18:08.550 ,3,0,0.,4.8,3.,4.8,4.,4.8,2.,4.8
1979-03-01 06:18:13.350 ,4,0,0.,4.8,9.,4.8,3.,4.8,1.,4.8
1979-03-01 06:18:18.150 ,4,0,0.,4.8,7.,4.8,1.,4.8,2.,4.8
1979-03-01 06:18:22.950 ,4,0,0.,4.8,1.,4.8,0.,4.8,1.,4.8
1979-03-01 06:18:27.750 ,4,0,0.,4.8,4.,4.8,1.,4.8,1.,4.8
1979-03-01 06:18:32.550 ,4,0,0.,4.8,11.,4.8,0.,4.8,2.,4.8
1979-03-01 06:18:37.350 ,5,0,0.,4.8,5.,4.8,4.,4.8,0.,4.8
1979-03-01 06:18:42.150 ,5,0,0.,4.8,1.,4.8,0.,4.8,1.,4.8
1979-03-01 06:18:46.950 ,5,0,0.,4.8,4.,4.8,1.,4.8,0.,4.8
1979-03-01 06:18:51.750 ,5,0,0.,4.8,4.,4.8,0.,4.8,1.,4.8
1979-03-01 06:18:56.550 ,5,0,0.,4.8,5.,4.8,3.,4.8,0.,4.8
1979-03-01 06:19:01.350 ,6,0,0.,4.8,9.,4.8,1.,4.8,1.,4.8
1979-03-01 06:19:06.150 ,6,0,0.,4.8,5.,4.8,2.,4.8,1.,4.8
1979-03-01 06:19:10.950 ,6,0,0.,4.8,9.,4.8,1.,4.8,1.,4.8
1979-03-01 06:19:15.750 ,6,0,0.,4.8,6.,4.8,3.,4.8,0.,4.8
1979-03-01 06:19:20.550 ,6,0,0.,4.8,8.,4.8,3.,4.8,0.,4.8
1979-03-01 06:19:25.350 ,7,0,0.,4.8,11.,4.8,5.,4.8,0.,4.8
1979-03-01 06:19:30.150 ,7,0,0.,4.8,10.,4.8,2.,4.8,0.,4.8
1979-03-01 06:19:34.950 ,7,0,0.,4.8,0.,4.8,0.,4.8,0.,4.8
1979-03-01 06:19:39.750 ,7,0,0.,4.8,0.,4.8,1.,4.8,0.,4.8
1979-03-01 06:19:44.550 ,7,0,0.,4.8,1.,4.8,1.,4.8,0.,4.8
1979-03-01 06:19:49.350 ,7,0,0.,4.8,0.,4.8,1.,4.8,2.,4.8
1979-03-01 06:19:54.150 ,7,0,0.,4.8,0.,4.8,0.,4.8,0.,4.8
1979-03-01 06:19:58.950 ,7,0,0.,4.8,0.,4.8,1.,4.8,0.,4.8
1979-03-01 06:20:03.750 ,7,0,0.,4.8,1.,4.8,0.,4.8,0.,4.8
1979-03-01 06:20:08.550 ,7,0,0.,4.8,0.,4.8,1.,4.8,0.,4.8
1979-03-01 06:20:13.350 ,6,0,0.,4.8,0.,4.8,1.,4.8,0.,4.8
1979-03-01 06:20:18.150 ,6,0,0.,4.8,1.,4.8,2.,4.8,0.,4.8
1979-03-01 06:20:22.950 ,6,0,0.,4.8,10.,4.8,1.,4.8,1.,4.8
1979-03-01 06:20:27.750 ,6,0,0.,4.8,8.,4.8,1.,4.8,1.,4.8
1979-03-01 06:20:32.550 ,6,0,0.,4.8,10.,4.8,0.,4.8,2.,4.8
1979-03-01 06:20:37.350 ,5,0,0.,4.8,11.,4.8,0.,4.8,1.,4.8
1979-03-01 06:20:42.150 ,5,0,0.,4.8,8.,4.8,3.,4.8,1.,4.8
1979-03-01 06:20:46.950 ,5,0,0.,4.8,6.,4.8,1.,4.8,0.,4.8
1979-03-01 06:20:51.750 ,5,0,0.,4.8,8.,4.8,1.,4.8,0.,4.8
1979-03-01 06:20:56.550 ,5,0,0.,4.8,4.,4.8,1.,4.8,1.,4.8
1979-03-01 06:21:01.350 ,4,0,0.,4.8,5.,4.8,2.,4.8,1.,4.8
1979-03-01 06:21:06.150 ,4,0,0.,4.8,7.,4.8,1.,4.8,1.,4.8
1979-03-01 06:21:10.950 ,4,0,0.,4.8,6.,4.8,1.,4.8,1.,4.8
1979-03-01 06:21:15.750 ,4,0,0.,4.8,7.,4.8,0.,4.8,0.,4.8
1979-03-01 06:21:20.550 ,4,0,0.,4.8,8.,4.8,2.,4.8,1.,4.8
1979-03-01 06:21:25.350 ,3,0,0.,4.8,2.,4.8,2.,4.8,1.,4.8
1979-03-01 06:21:30.150 ,3,0,0.,4.8,6.,4.8,2.,4.8,0.,4.8
1979-03-01 06:21:34.950 ,3,0,1.,4.8,11.,4.8,1.,4.8,0.,4.8
1979-03-01 06:21:39.750 ,3,0,0.,4.8,3.,4.8,5.,4.8,4.,4.8
1979-03-01 06:21:44.550 ,3,0,0.,4.8,6.,4.8,2.,4.8,1.,4.8
1979-03-01 06:21:49.350 ,2,0,0.,4.8,12.,4.8,1.,4.8,1.,4.8
1979-03-01 06:21:54.150 ,2,0,0.,4.8,10.,4.8,2.,4.8,1.,4.8
1979-03-01 06:21:58.950 ,2,0,0.,4.8,12.,4.8,9.,4.8,4.,4.8
1979-03-01 06:22:03.750 ,2,0,0.,4.8,17.,4.8,8.,4.8,3.,4.8
1979-03-01 06:22:08.550 ,2,0,0.,4.8,21.,4.8,5.,4.8,4.,4.8
1979-03-01 06:22:13.350 ,1,0,0.,4.8,16.,4.8,3.,4.8,1.,4.8
1979-03-01 06:22:18.150 ,1,0,0.,4.8,17.,4.8,9.,4.8,3.,4.8
1979-03-01 06:22:22.950 ,1,0,0.,4.8,10.,4.8,7.,4.8,3.,4.8
1979-03-01 06:22:27.750 ,1,0,0.,4.8,16.,4.8,6.,4.8,2.,4.8
1979-03-01 06:22:32.550 ,1,0,0.,4.8,19.,4.8,2.,4.8,4.,4.8
1979-03-01 06:22:37.350 ,0,0,0.,4.8,13.,4.8,4.,4.8,5.,4.8
1979-03-01 06:22:42.150 ,0,0,0.,4.8,22.,4.8,3.,4.8,6.,4.8
1979-03-01 06:22:46.950 ,0,0,0.,4.8,9.,4.8,1.,4.8,2.,4.8
1979-03-01 06:22:51.750 ,0,0,0.,4.8,15.,4.8,2.,4.8,1.,4.8
1979-03-01 06:22:56.550 ,0,0,0.,4.8,15.,4.8,6.,4.8,2.,4.8
1979-03-01 06:23:01.350 ,0,0,0.,4.8,8.,4.8,3.,4.8,1.,4.8
1979-03-01 06:23:06.150 ,0,0,0.,4.8,10.,4.8,1.,4.8,0.,4.8
1979-03-01 06:23:10.950 ,0,0,0.,4.8,11.,4.8,4.,4.8,2.,4.8
1979-03-01 06:23:15.750 ,0,0,0.,4.8,6.,4.8,7.,4.8,2.,4.8
1979-03-01 06:23:20.550 ,0,0,0.,4.8,13.,4.8,2.,4.8,2.,4.8
1979-03-01 06:23:25.350 ,1,0,0.,4.8,14.,4.8,0.,4.8,1.,4.8
1979-03-01 06:23:30.150 ,1,0,0.,4.8,13.,4.8,2.,4.8,5.,4.8
1979-03-01 06:23:34.950 ,1,0,0.,4.8,18.,4.8,3.,4.8,1.,4.8
1979-03-01 06:23:39.750 ,1,0,0.,4.8,17.,4.8,4.,4.8,2.,4.8
1979-03-01 06:23:44.550 ,1,0,0.,4.8,9.,4.8,7.,4.8,5.,4.8
1979-03-01 06:23:49.350 ,2,0,0.,4.8,14.,4.8,14.,4.8,2.,4.8
1979-03-01 06:23:54.150 ,2,0,0.,4.8,17.,4.8,9.,4.8,3.,4.8
1979-03-01 06:23:58.950 ,2,0,0.,4.8,20.,4.8,13.,4.8,3.,4.8
1979-03-01 06:24:03.750 ,2,0,0.,4.8,16.,4.8,5.,4.8,1.,4.8
1979-03-01 06:24:08.550 ,2,0,0.,4.8,13.,4.8,10.,4.8,3.,4.8
1979-03-01 06:24:13.350 ,3,0,0.,4.8,16.,4.8,7.,4.8,2.,4.8
1979-03-01 06:24:18.150 ,3,0,0.,4.8,21.,4.8,3.,4.8,2.,4.8
1979-03-01 06:24:22.950 ,3,0,0.,4.8,10.,4.8,2.,4.8,1.,4.8
1979-03-01 06:24:27.750 ,3,0,0.,4.8,6.,4.8,5.,4.8,3.,4.8
1979-03-01 06:24:32.550 ,3,0,1.,4.8,10.,4.8,3.,4.8,2.,4.8
1979-03-01 06:24:37.350 ,4,0,0.,4.8,8.,4.8,3.,4.8,2.,4.8
1979-03-01 06:24:42.150 ,4,0,0.,4.8,7.,4.8,5.,4.8,3.,4.8
1979-03-01 06:24:46.950 ,4,0,0.,4.8,6.,4.8,0.,4.8,0.,4.8
1979-03-01 06:24:51.750 ,4,0,0.,4.8,2.,4.8,4.,4.8,0.,4.8
1979-03-01 06:24:56.550 ,4,0,0.,4.8,4.,4.8,0.,4.8,0.,4.8
1979-03-01 06:25:01.350 ,5,0,0.,4.8,5.,4.8,1.,4.8,0.,4.8
1979-03-01 06:25:06.150 ,5,0,0.,4.8,8.,4.8,1.,4.8,1.,4.8
1979-03-01 06:25:10.950 ,5,0,0.,4.8,13.,4.8,3.,4.8,2.,4.8
1979-03-01 06:25:15.750 ,5,0,0.,4.8,7.,4.8,1.,4.8,0.,4.8
1979-03-01 06:25:20.550 ,5,0,0.,4.8,5.,4.8,2.,4.8,0.,4.8
1979-03-01 06:25:25.350 ,6,0,0.,4.8,9.,4.8,1.,4.8,0.,4.8
1979-03-01 06:25:30.150 ,6,0,0.,4.8,7.,4.8,3.,4.8,0.,4.8
1979-03-01 06:25:34.950 ,6,0,0.,4.8,11.,4.8,1.,4.8,0.,4.8
1979-03-01 06:25:39.750 ,6,0,0.,4.8,11.,4.8,1.,4.8,0.,4.8
1979-03-01 06:25:44.550 ,6,0,0.,4.8,15.,4.8,3.,4.8,1.,4.8
1979-03-01 06:25:49.350 ,7,0,0.,4.8,12.,4.8,0.,4.8,1.,4.8
1979-03-01 06:25:54.150 ,7,0,0.,4.8,12.,4.8,3.,4.8,1.,4.8
1979-03-01 06:25:58.950 ,7,0,0.,4.8,1.,4.8,0.,4.8,1.,4.8
1979-03-01 06:26:03.750 ,7,0,0.,4.8,1.,4.8,0.,4.8,0.,4.8
1979-03-01 06:26:08.550 ,7,0,0.,4.8,0.,4.8,0.,4.8,0.,4.8
1979-03-01 06:26:13.350 ,7,0,0.,4.8,0.,4.8,1.,4.8,0.,4.8
1979-03-01 06:26:18.150 ,7,0,0.,4.8,0.,4.8,2.,4.8,2.,4.8
1979-03-01 06:26:22.950 ,7,0,0.,4.8,1.,4.8,0.,4.8,0.,4.8
1979-03-01 06:26:27.750 ,7,0,0.,4.8,1.,4.8,1.,4.8,1.,4.8
1979-03-01 06:26:32.550 ,7,0,0.,4.8,1.,4.8,1.,4.8,0.,4.8
1979-03-01 06:26:37.350 ,6,0,0.,4.8,0.,4.8,1.,4.8,1.,4.8
1979-03-01 06:26:42.150 ,6,0,0.,4.8,1.,4.8,0.,4.8,0.,4.8
1979-03-01 06:26:46.950 ,6,0,0.,4.8,13.,4.8,4.,4.8,0.,4.8
1979-03-01 06:26:51.750 ,6,0,0.,4.8,13.,4.8,2.,4.8,2.,4.8
1979-03-01 06:26:56.550 ,6,0,0.,4.8,10.,4.8,3.,4.8,2.,4.8
1979-03-01 06:27:01.350 ,5,0,0.,4.8,15.,4.8,2.,4.8,3.,4.8
1979-03-01 06:27:06.150 ,5,0,0.,4.8,16.,4.8,5.,4.8,2.,4.8
1979-03-01 06:27:10.950 ,5,0,0.,4.8,12.,4.8,0.,4.8,0.,4.8
1979-03-01 06:27:15.750 ,5,0,0.,4.8,6.,4.8,3.,4.8,0.,4.8
1979-03-01 06:27:20.550 ,5,0,0.,4.8,6.,4.8,1.,4.8,0.,4.8
1979-03-01 06:27:25.350 ,4,0,0.,4.8,5.,4.8,1.,4.8,1.,4.8
1979-03-01 06:27:30.150 ,4,0,0.,4.8,6.,4.8,1.,4.8,2.,4.8
1979-03-01 06:27:34.950 ,4,0,0.,4.8,5.,4.8,4.,4.8,0.,4.8
1979-03-01 06:27:39.750 ,4,0,0.,4.8,6.,4.8,3.,4.8,1.,4.8
1979-03-01 06:27:44.550 ,4,0,0.,4.8,5.,4.8,1.,4.8,2.,4.8
1979-03-01 06:27:49.350 ,3,0,0.,4.8,11.,4.8,0.,4.8,1.,4.8
1979-03-01 06:27:54.150 ,3,0,0.,4.8,5.,4.8,0.,4.8,1.,4.8
1979-03-01 06:27:58.950 ,3,0,0.,4.8,14.,4.8,5.,4.8,0.,4.8
1979-03-01 06:28:03.750 ,3,0,0.,4.8,12.,4.8,3.,4.8,2.,4.8
1979-03-01 06:28:08.550 ,3,0,0.,4.8,8.,4.8,6.,4.8,1.,4.8
1979-03-01 06:28:13.350 ,2,0,0.,4.8,4.,4.8,2.,4.8,1.,4.8
1979-03-01 06:28:18.150 ,2,0,0.,4.8,10.,4.8,3.,4.8,3.,4.8
1979-03-01 06:28:22.950 ,2,0,0.,4.8,18.,4.8,8.,4.8,3.,4.8
1979-03-01 06:28:27.750 ,2,0,0.,4.8,19.,4.8,9.,4.8,2.,4.8
1979-03-01 06:28:32.550 ,2,0,0.,4.8,21.,4.8,8.,4.8,4.,4.8
1979-03-01 06:28:37.350 ,1,0,0.,4.8,17.,4.8,11.,4.8,3.,4.8
1979-03-01 06:28:42.150 ,1,0,0.,4.8,12.,4.8,8.,4.8,3.,4.8
1979-03-01 06:28:46.950 ,1,0,0.,4.8,18.,4.8,5.,4.8,4.,4.8
1979-03-01 06:28:51.750 ,1,0,0.,4.8,19.,4.8,4.,4.8,4.,4.8
1979-03-01 06:28:56.550 ,1,0,0.,4.8,21.,4.8,7.,4.8,2.,4.8
1979-03-01 06:29:01.350 ,0,0,0.,4.8,16.,4.8,3.,4.8,0.,4.8
1979-03-01 06:29:06.150 ,0,0,0.,4.8,17.,4.8,6.,4.8,4.,4.8
1979-03-01 06:29:10.950 ,0,0,0.,4.8,6.,4.8,2.,4.8,1.,4.8
1979-03-01 06:29:15.750 ,0,0,0.,4.8,15.,4.8,1.,4.8,1.,4.8
1979-03-01 06:29:20.550 ,0,0,0.,4.8,16.,4.8,4.,4.8,2.,4.8
1979-03-01 06:29:25.350 ,0,0,0.,4.8,8.,4.8,3.,4.8,2.,4.8
1979-03-01 06:29:30.150 ,0,0,0.,4.8,9.,4.8,6.,4.8,2.,4.8
1979-03-01 06:29:34.950 ,0,0,0.,4.8,10.,4.8,3.,4.8,0.,4.8
1979-03-01 06:29:39.750 ,0,0,0.,4.8,18.,4.8,5.,4.8,2.,4.8
1979-03-01 06:29:44.550 ,0,0,0.,4.8,11.,4.8,6.,4.8,0.,4.8
1979-03-01 06:29:49.350 ,1,0,0.,4.8,7.,4.8,2.,4.8,1.,4.8
1979-03-01 06:29:54.150 ,1,0,0.,4.8,17.,4.8,2.,4.8,0.,4.8
1979-03-01 06:29:58.950 ,1,0,0.,4.8,21.,4.8,3.,4.8,1.,4.8
1979-03-01 06:30:03.750 ,1,0,0.,4.8,17.,4.8,6.,4.8,2.,4.8
1979-03-01 06:30:08.550 ,1,0,0.,4.8,15.,4.8,9.,4.8,2.,4.8
1979-03-01 06:30:13.350 ,2,0,0.,4.8,15.,4.8,9.,4.8,3.,4.8
1979-03-01 06:30:18.150 ,2,0,0.,4.8,17.,4.8,11.,4.8,2.,4.8
1979-03-01 06:30:22.950 ,2,0,0.,4.8,9.,4.8,3.,4.8,2.,4.8
1979-03-01 06:30:27.750 ,2,0,0.,4.8,18.,4.8,5.,4.8,1.,4.8
1979-03-01 06:30:32.550 ,2,0,0.,4.8,15.,4.8,3.,4.8,2.,4.8
1979-03-01 06:30:37.350 ,3,0,0.,4.8,14.,4.8,5.,4.8,1.,4.8
1979-03-01 06:30:42.150 ,3,0,0.,4.8,20.,4.8,3.,4.8,2.,4.8
1979-03-01 06:30:46.950 ,3,0,0.,4.8,15.,4.8,4.,4.8,3.,4.8
1979-03-01 06:30:51.750 ,3,0,0.,4.8,11.,4.8,7.,4.8,1.,4.8
1979-03-01 06:30:56.550 ,3,0,0.,4.8,13.,4.8,3.,4.8,3.,4.8
1979-03-01 06:31:01.350 ,4,0,0.,4.8,10.,4.8,5.,4.8,4.,4.8
1979-03-01 06:31:06.150 ,4,0,0.,4.8,8.,4.8,4.,4.8,2.,4.8
1979-03-01 06:31:10.950 ,4,0,0.,4.8,7.,4.8,0.,4.8,1.,4.8
1979-03-01 06:31:15.750 ,4,0,0.,4.8,3.,4.8,0.,4.8,0.,4.8
1979-03-01 06:31:20.550 ,4,0,0.,4.8,5.,4.8,5.,4.8,0.,4.8
1979-03-01 06:31:25.350 ,5,0,0.,4.8,5.,4.8,1.,4.8,0.,4.8
1979-03-01 06:31:30.150 ,5,0,0.,4.8,6.,4.8,2.,4.8,1.,4.8
1979-03-01 06:31:34.950 ,5,0,0.,4.8,9.,4.8,2.,4.8,2.,4.8
1979-03-01 06:31:39.750 ,5,0,0.,4.8,9.,4.8,2.,4.8,0.,4.8
1979-03-01 06:31:44.550 ,5,0,0.,4.8,8.,4.8,2.,4.8,1.,4.8
1979-03-01 06:31:49.350 ,6,0,0.,4.8,11.,4.8,1.,4.8,1.,4.8
1979-03-01 06:31:54.150 ,6,0,0.,4.8,4.,4.8,2.,4.8,3.,4.8
1979-03-01 06:31:58.950 ,6,0,0.,4.8,7.,4.8,1.,4.8,0.,4.8
1979-03-01 06:32:03.750 ,6,0,0.,4.8,8.,4.8,0.,4.8,2.,4.8
1979-03-01 06:32:08.550 ,6,0,0.,4.8,11.,4.8,4.,4.8,0.,4.8
1979-03-01 06:32:13.350 ,7,0,0.,4.8,11.,4.8,3.,4.8,0.,4.8
1979-03-01 06:32:18.150 ,7,0,0.,4.8,7.,4.8,2.,4.8,0.,4.8
1979-03-01 06:32:22.950 ,7,0,0.,4.8,0.,4.8,0.,4.8,0.,4.8
1979-03-01 06:32:27.750 ,7,0,0.,4.8,1.,4.8,1.,4.8,2.,4.8
1979-03-01 06:32:32.550 ,7,0,0.,4.8,2.,4.8,0.,4.8,1.,4.8
1979-03-01 06:32:37.350 ,7,0,0.,4.8,1.,4.8,0.,4.8,0.,4.8
1979-03-01 06:32:42.150 ,7,0,0.,4.8,1.,4.8,0.,4.8,0.,4.8
1979-03-01 06:32:46.950 ,7,0,0.,4.8,0.,4.8,1.,4.8,0.,4.8
1979-03-01 06:32:51.750 ,7,0,0.,4.8,0.,4.8,0.,4.8,0.,4.8
1979-03-01 06:32:56.550 ,7,0,0.,4.8,0.,4.8,1.,4.8,0.,4.8
1979-03-01 06:33:01.350 ,6,0,0.,4.8,0.,4.8,1.,4.8,0.,4.8
1979-03-01 06:33:06.150 ,6,0,0.,4.8,0.,4.8,0.,4.8,0.,4.8
1979-03-01 06:33:10.950 ,6,0,0.,4.8,6.,4.8,0.,4.8,0.,4.8
1979-03-01 06:33:15.750 ,6,0,0.,4.8,8.,4.8,4.,4.8,0.,4.8
1979-03-01 06:33:20.550 ,6,0,0.,4.8,8.,4.8,2.,4.8,2.,4.8
1979-03-01 06:33:25.350 ,5,0,0.,4.8,8.,4.8,2.,4.8,2.,4.8
1979-03-01 06:33:30.150 ,5,0,0.,4.8,13.,4.8,1.,4.8,2.,4.8
1979-03-01 06:33:34.950 ,5,0,0.,4.8,12.,4.8,1.,4.8,0.,4.8
1979-03-01 06:33:39.750 ,5,0,0.,4.8,9.,4.8,6.,4.8,0.,4.8
1979-03-01 06:33:44.550 ,5,0,0.,4.8,5.,4.8,0.,4.8,1.,4.8
1979-03-01 06:33:49.350 ,4,0,0.,4.8,8.,4.8,1.,4.8,1.,4.8
1979-03-01 06:33:54.150 ,4,0,0.,4.8,9.,4.8,3.,4.8,0.,4.8
1979-03-01 06:33:58.950 ,4,0,0.,4.8,5.,4.8,3.,4.8,1.,4.8
1979-03-01 06:34:03.750 ,4,0,0.,4.8,5.,4.8,1.,4.8,0.,4.8
1979-03-01 06:34:08.550 ,4,0,0.,4.8,7.,4.8,0.,4.8,0.,4.8
1979-03-01 06:34:13.350 ,3,0,0.,4.8,5.,4.8,2.,4.8,2.,4.8
1979-03-01 06:34:18.150 ,3,0,0.,4.8,8.,4.8,3.,4.8,0.,4.8
1979-03-01 06:34:22.950 ,3,0,0.,4.8,10.,4.8,3.,4.8,1.,4.8
1979-03-01 06:34:27.750 ,3,0,0.,4.8,11.,4.8,4.,4.8,3.,4.8
1979-03-01 06:34:32.550 ,3,0,0.,4.8,10.,4.8,5.,4.8,0.,4.8
1979-03-01 06:34:37.350 ,2,0,0.,4.8,12.,4.8,2.,4.8,3.,4.8
1979-03-01 06:34:42.150 ,2,0,0.,4.8,10.,4.8,4.,4.8,2.,4.8
1979-03-01 06:34:46.950 ,2,0,0.,4.8,10.,4.8,2.,4.8,1.,4.8
1979-03-01 06:34:51.750 ,2,0,0.,4.8,10.,4.8,6.,4.8,2.,4.8
1979-03-01 06:34:56.550 ,2,0,0.,4.8,9.,4.8,4.,4.8,3.,4.8
1979-03-01 06:35:01.350 ,1,0,0.,4.8,9.,4.8,4.,4.8,3.,4.8
1979-03-01 06:35:06.150 ,1,0,0.,4.8,7.,4.8,4.,4.8,1.,4.8
1979-03-01 06:35:10.950 ,1,0,0.,4.8,13.,4.8,8.,4.8,1.,4.8
1979-03-01 06:35:15.750 ,1,0,0.,4.8,20.,4.8,7.,4.8,3.,4.8
1979-03-01 06:35:20.550 ,1,0,0.,4.8,16.,4.8,5.,4.8,5.,4.8
1979-03-01 06:35:25.350 ,0,0,0.,4.8,16.,4.8,1.,4.8,1.,4.8
1979-03-01 06:35:30.150 ,0,0,0.,4.8,16.,4.8,5.,4.8,3.,4.8
1979-03-01 06:35:34.950 ,0,0,0.,4.8,16.,4.8,0.,4.8,4.,4.8
1979-03-01 06:35:39.750 ,0,0,0.,4.8,11.,4.8,2.,4.8,0.,4.8
1979-03-01 06:35:44.550 ,0,0,0.,4.8,12.,4.8,1.,4.8,1.,4.8
1979-03-01 06:35:49.350 ,0,0,0.,4.8,9.,4.8,2.,4.8,1.,4.8
1979-03-01 06:35:54.150 ,0,0,0.,4.8,22.,4.8,0.,4.8,0.,4.8
1979-03-01 06:35:58.950 ,0,0,0.,4.8,14.,4.8,4.,4.8,3.,4.8
1979-03-01 06:36:03.750 ,0,0,0.,4.8,9.,4.8,3.,4.8,1.,4.8
1979-03-01 06:36:08.550 ,0,0,0.,4.8,20.,4.8,3.,4.8,1.,4.8
1979-03-01 06:36:13.350 ,1,0,0.,4.8,9.,4.8,3.,4.8,4.,4.8
1979-03-01 06:36:18.150 ,1,0,0.,4.8,15.,4.8,1.,4.8,2.,4.8
1979-03-01 06:36:22.950 ,1,0,0.,4.8,21.,4.8,5.,4.8,1.,4.8
1979-03-01 06:36:27.750 ,1,0,0.,4.8,14.,4.8,2.,4.8,2.,4.8
1979-03-01 06:36:32.550 ,1,0,0.,4.8,12.,4.8,6.,4.8,2.,4.8
1979-03-01 06:36:37.350 ,2,0,0.,4.8,22.,4.8,4.,4.8,3.,4.8
1979-03-01 06:36:42.150 ,2,0,0.,4.8,12.,4.8,8.,4.8,1.,4.8
1979-03-01 06:36:46.950 ,2,0,0.,4.8,11.,4.8,5.,4.8,0.,4.8
1979-03-01 06:36:51.750 ,2,0,0.,4.8,8.,4.8,7.,4.8,2.,4.8
1979-03-01 06:36:56.550 ,2,0,0.,4.8,8.,4.8,3.,4.8,1.,4.8
1979-03-01 06:37:01.350 ,3,0,0.,4.8,16.,4.8,0.,4.8,3.,4.8
1979-03-01 06:37:06.150 ,3,0,0.,4.8,9.,4.8,6.,4.8,2.,4.8
1979-03-01 06:37:10.950 ,3,0,0.,4.8,7.,4.8,3.,4.8,2.,4.8
1979-03-01 06:37:15.750 ,3,0,0.,4.8,6.,4.8,5.,4.8,2.,4.8
1979-03-01 06:37:20.550 ,3,0,0.,4.8,13.,4.8,6.,4.8,3.,4.8
1979-03-01 06:37:25.350 ,4,0,0.,4.8,7.,4.8,4.,4.8,0.,4.8
1979-03-01 06:37:30.150 ,4,0,0.,4.8,9.,4.8,3.,4.8,1.,4.8
1979-03-01 06:37:34.950 ,4,0,0.,4.8,8.,4.8,2.,4.8,1.,4.8
1979-03-01 06:37:39.750 ,4,0,0.,4.8,8.,4.8,2.,4.8,1.,4.8
1979-03-01 06:37:44.550 ,4,0,0.,4.8,7.,4.8,4.,4.8,0.,4.8
1979-03-01 06:37:49.350 ,5,0,0.,4.8,7.,4.8,0.,4.8,0.,4.8
1979-03-01 06:37:54.150 ,5,0,0.,4.8,5.,4.8,0.,4.8,1.,4.8
1979-03-01 06:37:58.950 ,5,0,0.,4.8,6.,4.8,1.,4.8,1.,4.8
1979-03-01 06:38:03.750 ,5,0,0.,4.8,9.,4.8,1.,4.8,0.,4.8
1979-03-01 06:38:08.550 ,5,0,0.,4.8,11.,4.8,2.,4.8,0.,4.8
1979-03-01 06:38:13.350 ,6,0,0.,4.8,10.,4.8,0.,4.8,3.,4.8
1979-03-01 06:38:18.150 ,6,0,0.,4.8,12.,4.8,0.,4.8,1.,4.8
1979-03-01 06:38:22.950 ,6,0,0.,4.8,7.,4.8,1.,4.8,0.,4.8
1979-03-01 06:38:27.750 ,6,0,0.,4.8,15.,4.8,2.,4.8,1.,4.8
1979-03-01 06:38:32.550 ,6,0,0.,4.8,12.,4.8,3.,4.8,3.,4.8
1979-03-01 06:38:37.350 ,7,0,0.,4.8,11.,4.8,0.,4.8,1.,4.8
1979-03-01 06:38:42.150 ,7,0,0.,4.8,10.,4.8,1.,4.8,1.,4.8
1979-03-01 06:38:46.950 ,7,0,0.,4.8,0.,4.8,0.,4.8,4.,4.8
1979-03-01 06:38:51.750 ,7,0,0.,4.8,1.,4.8,0.,4.8,1.,4.8
1979-03-01 06:38:56.550 ,7,0,0.,4.8,0.,4.8,4.,4.8,2.,4.8
1979-03-01 06:39:01.350 ,7,0,0.,4.8,0.,4.8,2.,4.8,0.,4.8
1979-03-01 06:39:06.150 ,7,0,0.,4.8,0.,4.8,0.,4.8,1.,4.8
1979-03-01 06:39:10.950 ,7,0,0.,4.8,1.,4.8,2.,4.8,0.,4.8
1979-03-01 06:39:15.750 ,7,0,0.,4.8,1.,4.8,1.,4.8,0.,4.8
1979-03-01 06:39:20.550 ,7,0,0.,4.8,0.,4.8,1.,4.8,0.,4.8
1979-03-01 06:39:25.350 ,6,0,0.,4.8,0.,4.8,0.,4.8,0.,4.8
1979-03-01 06:39:30.150 ,6,0,0.,4.8,0.,4.8,1.,4.8,0.,4.8
1979-03-01 06:39:34.950 ,6,0,0.,4.8,8.,4.8,1.,4.8,0.,4.8
1979-03-01 06:39:39.750 ,6,0,0.,4.8,15.,4.8,3.,4.8,1.,4.8
1979-03-01 06:39:44.550 ,6,0,0.,4.8,9.,4.8,3.,4.8,0.,4.8
1979-03-01 06:39:49.350 ,5,0,0.,4.8,5.,4.8,1.,4.8,0.,4.8
1979-03-01 06:39:54.150 ,5,0,0.,4.8,13.,4.8,1.,4.8,3.,4.8
1979-03-01 06:39:58.950 ,5,0,0.,4.8,8.,4.8,3.,4.8,4.,4.8
1979-03-01 06:40:03.750 ,5,0,0.,4.8,8.,4.8,0.,4.8,0.,4.8
1979-03-01 06:40:08.550 ,5,0,0.,4.8,9.,4.8,1.,4.8,0.,4.8
1979-03-01 06:40:13.350 ,4,0,0.,4.8,7.,4.8,2.,4.8,0.,4.8
1979-03-01 06:40:18.150 ,4,0,0.,4.8,16.,4.8,0.,4.8,1.,4.8
1979-03-01 06:40:22.950 ,4,0,0.,4.8,10.,4.8,1.,4.8,0.,4.8
1979-03-01 06:40:27.750 ,4,0,0.,4.8,5.,4.8,3.,4.8,1.,4.8
1979-03-01 06:40:32.550 ,4,0,0.,4.8,10.,4.8,1.,4.8,0.,4.8
1979-03-01 06:40:37.350 ,3,0,0.,4.8,3.,4.8,0.,4.8,1.,4.8
1979-03-01 06:40:42.150 ,3,0,0.,4.8,8.,4.8,0.,4.8,1.,4.8
1979-03-01 06:40:46.950 ,3,0,0.,4.8,7.,4.8,3.,4.8,1.,4.8
1979-03-01 06:40:51.750 ,3,0,0.,4.8,10.,4.8,5.,4.8,0.,4.8
1979-03-01 06:40:56.550 ,3,0,0.,4.8,8.,4.8,3.,4.8,2.,4.8
1979-03-01 06:41:01.350 ,2,0,0.,4.8,10.,4.8,1.,4.8,1.,4.8
1979-03-01 06:41:06.150 ,2,0,0.,4.8,5.,4.8,5.,4.8,3.,4.8
1979-03-01 06:41:10.950 ,2,0,0.,4.8,5.,4.8,5.,4.8,3.,4.8
1979-03-01 06:41:15.750 ,2,0,1.,4.8,13.,4.8,7.,4.8,2.,4.8
1979-03-01 06:41:20.550 ,2,0,0.,4.8,11.,4.8,4.,4.8,0.,4.8
1979-03-01 06:41:25.350 ,1,0,0.,4.8,9.,4.8,4.,4.8,2.,4.8
1979-03-01 06:41:30.150 ,1,0,0.,4.8,12.,4.8,5.,4.8,0.,4.8
1979-03-01 06:41:34.950 ,1,0,0.,4.8,17.,4.8,4.,4.8,2.,4.8
1979-03-01 06:41:39.750 ,1,0,0.,4.8,20.,4.8,4.,4.8,3.,4.8
1979-03-01 06:41:44.550 ,1,0,0.,4.8,16.,4.8,6.,4.8,1.,4.8
1979-03-01 06:41:49.350 ,0,0,0.,4.8,9.,4.8,5.,4.8,1.,4.8
1979-03-01 06:41:54.150 ,0,0,0.,4.8,22.,4.8,3.,4.8,0.,4.8
1979-03-01 06:41:58.950 ,0,0,0.,4.8,10.,4.8,3.,4.8,2.,4.8
1979-03-01 06:42:03.750 ,0,0,0.,4.8,13.,4.8,2.,4.8,0.,4.8
1979-03-01 06:42:08.550 ,0,0,0.,4.8,21.,4.8,0.,4.8,2.,4.8
1979-03-01 06:42:13.350 ,0,0,0.,4.8,14.,4.8,3.,4.8,0.,4.8
1979-03-01 06:42:18.150 ,0,0,0.,4.8,9.,4.8,1.,4.8,2.,4.8
1979-03-01 06:42:22.950 ,0,0,0.,4.8,17.,4.8,3.,4.8,1.,4.8
1979-03-01 06:42:27.750 ,0,0,0.,4.8,12.,4.8,2.,4.8,0.,4.8